| time (UTC) | temp F | wind direction | speed MPH | gust MPH | rain 1hr in | rain 24hr in | rain mn in | humidity % | barometer mb |
| 20260905111004 | 62 | 283 | 0.0 | 2.0 | 0.00 | 0.00 | 0.00 | 86 | 993.0 |
| 20260905110004 | 62 | 326 | 2.0 | 3.0 | 0.00 | 0.00 | 0.00 | 86 | 992.9 |
| 20260905105004 | 62 | 294 | 1.0 | 2.0 | 0.00 | 0.00 | 0.00 | 87 | 992.7 |
| 20260905104004 | 62 | 319 | 2.0 | 3.0 | 0.00 | 0.00 | 0.00 | 87 | 992.7 |
| 20260905103003 | 62 | 293 | 1.0 | 3.0 | 0.00 | 0.00 | 0.00 | 87 | 992.7 |
| 20260905102004 | 62 | 272 | 0.0 | 2.0 | 0.00 | 0.00 | 0.00 | 87 | 992.6 |
| 20260905101004 | 62 | 275 | 1.0 | 2.0 | 0.00 | 0.00 | 0.00 | 87 | 992.6 |
| 20260905100004 | 62 | 304 | 0.0 | 0.0 | 0.00 | 0.00 | 0.00 | 88 | 992.6 |
| 20260905095004 | 62 | 304 | 0.0 | 3.0 | 0.00 | 0.00 | 0.00 | 88 | 992.5 |
| 20260905094004 | 61 | 40 | 0.0 | 0.0 | 0.00 | 0.00 | 0.00 | 88 | 992.4 |
| 20260905093003 | 61 | 40 | 0.0 | 1.0 | 0.00 | 0.00 | 0.00 | 89 | 992.3 |
| 20260905092004 | 61 | 309 | 0.0 | 0.0 | 0.00 | 0.00 | 0.00 | 89 | 992.4 |
| 20260905091004 | 61 | 309 | 0.0 | 0.0 | 0.00 | 0.00 | 0.00 | 89 | 992.4 |
| 20260905090004 | 61 | 309 | 0.0 | 0.0 | 0.00 | 0.00 | 0.00 | 89 | 992.3 |
| 20260905085004 | 61 | 309 | 0.0 | 0.0 | 0.00 | 0.00 | 0.00 | 88 | 992.3 |
| 20260905084004 | 62 | 309 | 0.0 | 0.0 | 0.00 | 0.00 | 0.00 | 88 | 992.2 |
| 20260905083004 | 62 | 309 | 0.0 | 0.0 | 0.00 | 0.00 | 0.00 | 87 | 992.0 |
| 20260905081004 | 62 | 309 | 0.0 | 0.0 | 0.00 | 0.00 | 0.00 | 87 | 991.9 |
| 20260905080004 | 62 | 309 | 0.0 | 0.0 | 0.00 | 0.00 | 0.00 | 87 | 991.9 |
| 20260905075003 | 62 | 309 | 0.0 | 0.0 | 0.00 | 0.00 | 0.00 | 86 | 991.8 |
| 20260905074003 | 62 | 309 | 0.0 | 0.0 | 0.00 | 0.00 | 0.00 | 86 | 991.8 |
| 20260905073004 | 63 | 309 | 0.0 | 1.0 | 0.00 | 0.00 | 0.00 | 85 | 991.9 |
| 20260905072004 | 63 | 289 | 0.0 | 5.0 | 0.00 | 0.00 | 0.00 | 85 | 991.8 |
| 20260905070004 | 63 | 310 | 2.0 | 3.0 | 0.00 | 0.00 | 0.00 | 84 | 991.7 |
| 20260905065004 | 63 | 331 | 1.0 | 5.0 | 0.00 | 0.00 | 0.00 | 84 | 991.7 |
| 20260905064004 | 63 | 311 | 1.0 | 3.0 | 0.00 | 0.00 | 0.00 | 84 | 991.7 |
| 20260905063004 | 63 | 342 | 0.0 | 3.0 | 0.00 | 0.00 | 0.00 | 83 | 991.7 |
| 20260905062004 | 64 | 336 | 1.0 | 5.0 | 0.00 | 0.00 | 0.00 | 83 | 991.7 |
| 20260905061004 | 63 | 330 | 2.0 | 5.0 | 0.00 | 0.00 | 0.00 | 83 | 991.9 |
| 20260905060004 | 63 | 49 | 1.0 | 2.0 | 0.00 | 0.00 | 0.00 | 84 | 991.8 |
| 20260905055003 | 64 | 8 | 1.0 | 5.0 | 0.00 | 0.00 | 0.00 | 83 | 991.9 |
| 20260905054003 | 64 | 345 | 2.0 | 3.0 | 0.00 | 0.00 | 0.00 | 83 | 991.9 |
| 20260905053004 | 64 | 335 | 0.0 | 0.0 | 0.00 | 0.00 | 0.00 | 82 | 992.1 |
| 20260905051003 | 64 | 80 | 1.0 | 3.0 | 0.00 | 0.00 | 0.00 | 82 | 992.0 |
| 20260905050004 | 64 | 329 | 2.0 | 3.0 | 0.00 | 0.00 | 0.00 | 82 | 992.0 |
| 20260905045003 | 64 | 8 | 0.0 | 3.0 | 0.00 | 0.00 | 0.00 | 81 | 992.0 |
| 20260905044004 | 65 | 336 | 1.0 | 2.0 | 0.00 | 0.00 | 0.00 | 81 | 992.0 |
| 20260905042004 | 66 | 327 | 1.0 | 5.0 | 0.00 | 0.00 | 0.00 | 79 | 991.9 |
| 20260905041004 | 66 | 332 | 2.0 | 5.0 | 0.00 | 0.00 | 0.00 | 76 | 992.0 |
| 20260905035004 | 67 | 307 | 2.0 | 6.0 | 0.00 | 0.00 | 0.00 | 76 | 991.9 |
| 20260905034004 | 66 | 314 | 2.0 | 8.0 | 0.00 | 0.00 | 0.00 | 77 | 991.9 |
| 20260905033004 | 66 | 319 | 2.0 | 6.0 | 0.00 | 0.00 | 0.00 | 77 | 991.9 |
| 20260905032004 | 66 | 330 | 2.0 | 6.0 | 0.00 | 0.00 | 0.00 | 77 | 992.0 |
| 20260905031004 | 67 | 342 | 2.0 | 5.0 | 0.00 | 0.00 | 0.00 | 77 | 992.1 |
| 20260905030004 | 66 | 356 | 1.0 | 5.0 | 0.00 | 0.00 | 0.00 | 76 | 992.2 |
| 20260905025005 | 67 | 311 | 0.0 | 2.0 | 0.00 | 0.00 | 0.00 | 76 | 992.2 |
| 20260905023004 | 67 | 265 | 0.0 | 2.0 | 0.00 | 0.00 | 0.00 | 78 | 992.2 |
| 20260905022004 | 67 | 271 | 1.0 | 2.0 | 0.00 | 0.00 | 0.00 | 77 | 992.3 |
| 20260905021004 | 67 | 297 | 1.0 | 3.0 | 0.00 | 0.00 | 0.00 | 75 | 992.4 |
| 20260905015004 | 67 | 305 | 0.0 | 1.0 | 0.00 | 0.00 | 0.00 | 74 | 992.4 |
| 20260905014006 | 67 | 4 | 1.0 | 1.0 | 0.00 | 0.00 | 0.00 | 74 | 992.4 |
| 20260905013004 | 67 | 4 | 0.0 | 2.0 | 0.00 | 0.00 | 0.00 | 74 | 992.5 |
| 20260905012004 | 68 | 261 | 1.0 | 2.0 | 0.00 | 0.00 | 0.00 | 75 | 992.4 |
| 20260905011003 | 68 | 56 | 0.0 | 0.0 | 0.00 | 0.00 | 0.00 | 73 | 992.6 |
| 20260905010004 | 68 | 56 | 1.0 | 2.0 | 0.00 | 0.00 | 0.00 | 69 | 992.4 |
| 20260905005005 | 68 | 316 | 2.0 | 3.0 | 0.00 | 0.00 | 0.00 | 71 | 992.4 |
| 20260905004004 | 69 | 25 | 0.0 | 2.0 | 0.00 | 0.00 | 0.00 | 69 | 992.4 |
| 20260905003004 | 69 | 21 | 0.0 | 1.0 | 0.00 | 0.00 | 0.00 | 67 | 992.4 |
| 20260905002004 | 70 | 350 | 1.0 | 2.0 | 0.00 | 0.00 | 0.00 | 65 | 992.4 |
| 20260905001004 | 70 | 277 | 0.0 | 3.0 | 0.00 | 0.00 | 0.00 | 66 | 992.4 |
| 20260905000004 | 71 | 21 | 1.0 | 5.0 | 0.00 | 0.00 | 0.00 | 65 | 992.1 |
| 20260904234004 | 71 | 351 | 2.0 | 5.0 | 0.00 | 0.00 | 0.00 | 62 | 992.0 |
| 20260904232003 | 71 | 312 | 1.0 | 8.0 | 0.00 | 0.00 | 0.00 | 63 | 992.0 |
| 20260904230004 | 72 | 18 | 1.0 | 5.0 | 0.00 | 0.00 | 0.00 | 63 | 992.2 |
| 20260904225004 | 72 | 314 | 2.0 | 6.0 | 0.00 | 0.00 | 0.00 | 62 | 992.1 |
| 20260904224004 | 72 | 345 | 2.0 | 5.0 | 0.00 | 0.00 | 0.00 | 62 | 992.0 |
| 20260904223003 | 73 | 326 | 3.0 | 5.0 | 0.00 | 0.00 | 0.00 | 60 | 991.9 |
| 20260904222004 | 73 | 47 | 1.0 | 6.0 | 0.00 | 0.00 | 0.00 | 61 | 992.0 |
| 20260904215004 | 74 | 352 | 1.0 | 5.0 | 0.00 | 0.00 | 0.00 | 59 | 992.0 |
| 20260904214003 | 74 | 300 | 3.0 | 6.0 | 0.00 | 0.00 | 0.00 | 58 | 991.9 |
| 20260904213005 | 74 | 302 | 2.0 | 6.0 | 0.00 | 0.00 | 0.00 | 59 | 991.9 |
| 20260904211004 | 75 | 21 | 2.0 | 7.0 | 0.00 | 0.00 | 0.00 | 56 | 991.9 |
| 20260904210003 | 75 | 317 | 3.0 | 9.0 | 0.00 | 0.00 | 0.00 | 56 | 991.8 |
| 20260904205004 | 76 | 5 | 2.0 | 6.0 | 0.00 | 0.00 | 0.00 | 58 | 991.8 |
| 20260904204004 | 76 | 306 | 1.0 | 6.0 | 0.00 | 0.00 | 0.00 | 58 | 991.7 |
| 20260904203003 | 76 | 253 | 2.0 | 7.0 | 0.00 | 0.00 | 0.00 | 56 | 991.8 |
| 20260904202004 | 76 | 291 | 2.0 | 7.0 | 0.00 | 0.00 | 0.00 | 57 | 991.8 |
| 20260904201004 | 76 | 356 | 1.0 | 6.0 | 0.00 | 0.00 | 0.00 | 55 | 991.8 |
| 20260904200007 | 76 | 125 | 1.0 | 7.0 | 0.00 | 0.00 | 0.00 | 55 | 991.8 |
| 20260904195004 | 76 | 7 | 3.0 | 8.0 | 0.00 | 0.00 | 0.00 | 52 | 991.8 |
| 20260904194004 | 77 | 251 | 5.0 | 9.0 | 0.00 | 0.00 | 0.00 | 51 | 991.7 |
| 20260904193003 | 77 | 338 | 4.0 | 9.0 | 0.00 | 0.00 | 0.00 | 50 | 991.8 |
| 20260904192004 | 76 | 35 | 1.0 | 7.0 | 0.00 | 0.00 | 0.00 | 56 | 991.9 |
| 20260904191003 | 76 | 320 | 3.0 | 7.0 | 0.00 | 0.00 | 0.00 | 55 | 992.1 |
| 20260904190004 | 77 | 334 | 1.0 | 3.0 | 0.00 | 0.00 | 0.00 | 59 | 992.0 |
| 20260904185004 | 77 | 336 | 0.0 | 7.0 | 0.00 | 0.00 | 0.00 | 56 | 991.9 |
| 20260904184003 | 76 | 306 | 2.0 | 7.0 | 0.00 | 0.00 | 0.00 | 56 | 992.0 |
| 20260904181004 | 77 | 315 | 2.0 | 6.0 | 0.00 | 0.00 | 0.00 | 55 | 992.0 |
| 20260904175003 | 77 | 340 | 1.0 | 5.0 | 0.00 | 0.00 | 0.00 | 60 | 992.0 |
| 20260904174004 | 78 | 285 | 2.0 | 3.0 | 0.00 | 0.00 | 0.00 | 57 | 992.0 |
| 20260904173004 | 78 | 282 | 1.0 | 6.0 | 0.00 | 0.00 | 0.00 | 59 | 992.1 |
| 20260904172004 | 76 | 305 | 1.0 | 3.0 | 0.00 | 0.00 | 0.00 | 63 | 992.3 |
| 20260904171004 | 76 | 241 | 1.0 | 3.0 | 0.00 | 0.00 | 0.00 | 63 | 992.3 |
| 20260904170004 | 78 | 275 | 2.0 | 6.0 | 0.00 | 0.00 | 0.00 | 60 | 992.3 |
| 20260904165004 | 78 | 225 | 2.0 | 9.0 | 0.00 | 0.00 | 0.00 | 59 | 992.3 |
| 20260904164004 | 78 | 314 | 5.0 | 7.0 | 0.00 | 0.00 | 0.00 | 54 | 992.6 |
| 20260904163004 | 77 | 5 | 2.0 | 7.0 | 0.00 | 0.00 | 0.00 | 60 | 992.6 |
| 20260904162004 | 77 | 136 | 2.0 | 7.0 | 0.00 | 0.00 | 0.00 | 60 | 992.6 |
| 20260904161006 | 76 | 8 | 2.0 | 8.0 | 0.00 | 0.00 | 0.00 | 62 | 992.7 |
| 20260904155004 | 75 | 299 | 2.0 | 6.0 | 0.00 | 0.00 | 0.00 | 65 | 992.9 |
| 20260904154003 | 75 | 286 | 1.0 | 5.0 | 0.00 | 0.00 | 0.00 | 65 | 993.0 |
| 20260904153004 | 75 | 344 | 2.0 | 7.0 | 0.00 | 0.00 | 0.00 | 67 | 992.9 |
| 20260904152004 | 75 | 79 | 2.0 | 3.0 | 0.00 | 0.00 | 0.00 | 68 | 993.1 |
| 20260904151004 | 74 | 349 | 1.0 | 3.0 | 0.00 | 0.00 | 0.00 | 71 | 993.3 |
| 20260904150004 | 74 | 337 | 1.0 | 5.0 | 0.00 | 0.00 | 0.00 | 72 | 993.3 |
| 20260904145004 | 73 | 0 | 2.0 | 5.0 | 0.00 | 0.00 | 0.00 | 74 | 993.2 |
| 20260904144004 | 72 | 324 | 2.0 | 5.0 | 0.00 | 0.00 | 0.00 | 73 | 993.4 |
| 20260904143004 | 72 | 180 | 1.0 | 3.0 | 0.00 | 0.00 | 0.00 | 76 | 993.4 |
| 20260904142004 | 71 | 35 | 1.0 | 2.0 | 0.00 | 0.00 | 0.00 | 80 | 993.5 |
| 20260904140004 | 70 | 291 | 1.0 | 5.0 | 0.00 | 0.00 | 0.00 | 82 | 993.5 |
| 20260904135003 | 69 | 254 | 0.0 | 2.0 | 0.00 | 0.00 | 0.00 | 83 | 993.5 |
| 20260904134003 | 69 | 273 | 2.0 | 3.0 | 0.00 | 0.00 | 0.00 | 84 | 993.5 |
| 20260904133004 | 67 | 35 | 0.0 | 5.0 | 0.00 | 0.00 | 0.00 | 89 | 993.7 |
| 20260904132004 | 66 | 64 | 1.0 | 3.0 | 0.00 | 0.00 | 0.00 | 92 | 993.6 |
| 20260904130004 | 65 | 288 | 0.0 | 2.0 | 0.00 | 0.00 | 0.00 | 95 | 993.7 |
| 20260904125003 | 64 | 352 | 0.0 | 2.0 | 0.00 | 0.00 | 0.00 | 95 | 993.7 |
| 20260904124003 | 64 | 120 | 0.0 | 0.0 | 0.00 | 0.00 | 0.00 | 95 | 993.6 |
| 20260904123007 | 64 | 120 | 0.0 | 1.0 | 0.00 | 0.00 | 0.00 | 95 | 993.6 |
| 20260904122004 | 64 | 320 | 0.0 | 0.0 | 0.00 | 0.00 | 0.00 | 95 | 993.6 |
| 20260904121004 | 64 | 320 | 0.0 | 0.0 | 0.00 | 0.00 | 0.00 | 96 | 993.4 |
| 20260904120004 | 63 | 320 | 0.0 | 0.0 | 0.00 | 0.00 | 0.00 | 96 | 993.5 |
| 20260904115004 | 63 | 320 | 0.0 | 0.0 | 0.00 | 0.01 | 0.00 | 95 | 993.4 |
| 20260904114004 | 63 | 320 | 0.0 | 0.0 | 0.00 | 0.01 | 0.00 | 95 | 993.5 |
| 20260904113004 | 63 | 320 | 0.0 | 0.0 | 0.00 | 0.02 | 0.00 | 96 | 993.4 |
| 20260904112004 | 63 | 320 | 0.0 | 0.0 | 0.00 | 0.02 | 0.00 | 96 | 993.3 |